History for DABB

Annaba, DZ

Daily Weekly Monthly
Daily Summary for Wednesday, March 20, 2019
  Actual: Average: Record:
Temperature
Mean Temperature: 52 °F / 11 °C - :  
Max Temperature: 56 °F / 13 °C 67 °F / 19 °C - ()
Min Temperature: 49 °F / 9 °C 48 °F / 9 °C - ()
Degree Days
Heating Degree Days: 12    
Growing Degree Days 2 (Base 50)    
Moisture
Dew Point 48 °F / 9 °C    
Average Humidity 86    
Maximum Humidity 100    
Minimum Humidity 66    
Precipitation
Precipitation 0.98 in / 25.0 cm 0.07 in / 1.9 cm - ()
Sea Level Pressure
Sea Level Pressure 30.07 in / 1018.46 hPa   
Wind
Wind Speed 6 mph / 9 km/h ()  
Max Wind Speed 23 mph / 37 km/h   
Max Gust Speed 34 mph / 56 km/h   
Visibility 4.8 miles / 7.8 kilometers   
Events Rain   

Key: T is trace of precipitation, MM is missing value
Source: Averaged Metar Reports

Graphs

Observations

History Graphs Observations

Obs Go Here...

Features

Weather Apps

WunderRadio

Weather Underground Apps
Check out our wide variety of mobile and setup applications.

Weather Underground Applications

Top of Page

© Copyright 2019
The Weather Company, LLC
Time(CET)TemperatureDew PointHumidity Sea Level Pressure Visibility Wind DirectionWind SpeedGust SpeedPrecipitationEvents Conditions
12:00 AM 51.8 °F / 11.0 °C 46.4 °F / 8.0 °C 82% 30.09 in / 1019 hPa 6.2 miles / 10.0 kilometers NW 4.6 mph / 7.4 km/h - N/A   Mostly Cloudy
12:30 AM 51.8 °F / 11.0 °C 46.4 °F / 8.0 °C 82% 30.09 in / 1019 hPa 6.2 miles / 10.0 kilometers WNW 4.6 mph / 7.4 km/h - N/A   Mostly Cloudy
1:00 AM 51 °F / 11 °C 47 °F / 8 °C 82% 30.11 in / 1020 hPa 6 miles / 10 kilometers West 4.6 mph / 7.4 km/h - -   Mostly Cloudy
1:30 AM 51.8 °F / 11.0 °C 46.4 °F / 8.0 °C 82% 30.09 in / 1019 hPa 6.2 miles / 10.0 kilometers WNW 2.3 mph / 3.7 km/h - N/A   Mostly Cloudy
2:30 AM 50.0 °F / 10.0 °C 46.4 °F / 8.0 °C 87% 30.09 in / 1019 hPa 6.2 miles / 10.0 kilometers North 10.4 mph / 16.7 km/h - N/A   Mostly Cloudy
3:00 AM 53.6 °F / 12.0 °C 46.4 °F / 8.0 °C 77% 30.06 in / 1018 hPa 6.2 miles / 10.0 kilometers North 11.5 mph / 18.5 km/h - N/A   Mostly Cloudy
3:30 AM 53.6 °F / 12.0 °C 44.6 °F / 7.0 °C 72% 30.06 in / 1018 hPa 6.2 miles / 10.0 kilometers NNW 9.2 mph / 14.8 km/h - N/A   Mostly Cloudy
4:00 AM 52 °F / 11 °C 45 °F / 7 °C 69% 30.07 in / 1018 hPa 6 miles / 10 kilometers WNW 4.6 mph / 7.4 km/h - -   Mostly Cloudy
4:30 AM 51.8 °F / 11.0 °C 44.6 °F / 7.0 °C 76% 30.06 in / 1018 hPa 6.2 miles / 10.0 kilometers WNW 4.6 mph / 7.4 km/h - N/A   Mostly Cloudy
5:00 AM 50.0 °F / 10.0 °C 46.4 °F / 8.0 °C 87% 30.06 in / 1018 hPa 6.2 miles / 10.0 kilometers NW 4.6 mph / 7.4 km/h - N/A   Mostly Cloudy
5:30 AM 50.0 °F / 10.0 °C 46.4 °F / 8.0 °C 87% 30.06 in / 1018 hPa 6.2 miles / 10.0 kilometers NW 4.6 mph / 7.4 km/h - N/A   Mostly Cloudy
6:00 AM 50.0 °F / 10.0 °C 46.4 °F / 8.0 °C 87% 30.06 in / 1018 hPa 6.2 miles / 10.0 kilometers SSW 3.5 mph / 5.6 km/h - N/A   Mostly Cloudy
6:30 AM 50.0 °F / 10.0 °C 46.4 °F / 8.0 °C 87% 30.06 in / 1018 hPa 6.2 miles / 10.0 kilometers SW 3.5 mph / 5.6 km/h - N/A   Scattered Clouds
7:00 AM 49 °F / 10 °C 46 °F / 8 °C 87% 30.08 in / 1019 hPa 6 miles / 10 kilometers SSW 2.3 mph / 3.7 km/h - -   Partly Cloudy
7:00 AM 50.0 °F / 10.0 °C 46.4 °F / 8.0 °C 87% 30.06 in / 1018 hPa 6.2 miles / 10.0 kilometers SSW 2.3 mph / 3.7 km/h - N/A   Scattered Clouds
7:30 AM 50.0 °F / 10.0 °C 46.4 °F / 8.0 °C 87% 30.06 in / 1018 hPa 6.2 miles / 10.0 kilometers South 3.5 mph / 5.6 km/h - N/A   Scattered Clouds
8:00 AM 50.0 °F / 10.0 °C 46.4 °F / 8.0 °C 87% 30.09 in / 1019 hPa 6.2 miles / 10.0 kilometers South 3.5 mph / 5.6 km/h - N/A   Mostly Cloudy
9:00 AM 51.8 °F / 11.0 °C 48.2 °F / 9.0 °C 88% 30.09 in / 1019 hPa 6.2 miles / 10.0 kilometers SSW 5.8 mph / 9.3 km/h - N/A   Mostly Cloudy
9:30 AM 51.8 °F / 11.0 °C 48.2 °F / 9.0 °C 88% 30.09 in / 1019 hPa 6.2 miles / 10.0 kilometers SSW 6.9 mph / 11.1 km/h - N/A   Mostly Cloudy
10:00 AM 53 °F / 12 °C 48 °F / 9 °C 78% 30.12 in / 1020 hPa 7 miles / 12 kilometers SSW 3.5 mph / 5.6 km/h - - Rain Light Rain
10:00 AM 53.6 °F / 12.0 °C 48.2 °F / 9.0 °C 82% 30.12 in / 1020 hPa 6.2 miles / 10.0 kilometers SSW 3.5 mph / 5.6 km/h - N/A Rain Light Rain
10:30 AM 53.6 °F / 12.0 °C 50.0 °F / 10.0 °C 88% 30.09 in / 1019 hPa 6.2 miles / 10.0 kilometers SW 4.6 mph / 7.4 km/h - N/A Rain Light Rain
11:30 AM 53.6 °F / 12.0 °C 48.2 °F / 9.0 °C 82% 30.09 in / 1019 hPa 5.0 miles / 8.0 kilometers WSW 1.2 mph / 1.9 km/h - N/A   Mostly Cloudy
12:00 PM 55.4 °F / 13.0 °C 50.0 °F / 10.0 °C 82% 30.09 in / 1019 hPa 5.0 miles / 8.0 kilometers WNW 2.3 mph / 3.7 km/h - N/A   Mostly Cloudy
12:30 PM 55.4 °F / 13.0 °C 50.0 °F / 10.0 °C 82% 30.09 in / 1019 hPa 5.0 miles / 8.0 kilometers NNW 6.9 mph / 11.1 km/h - N/A   Mostly Cloudy
1:00 PM 55 °F / 13 °C 47 °F / 8 °C 66% 30.10 in / 1019 hPa 5 miles / 8 kilometers NNW 5.8 mph / 9.3 km/h - - Rain Light Rain
1:00 PM 55.4 °F / 13.0 °C 46.4 °F / 8.0 °C 72% 30.09 in / 1019 hPa 5.0 miles / 8.0 kilometers NNW 5.8 mph / 9.3 km/h - N/A Rain Light Rain
1:30 PM 53.6 °F / 12.0 °C 46.4 °F / 8.0 °C 77% 30.09 in / 1019 hPa 3.7 miles / 6.0 kilometers NNW 5.8 mph / 9.3 km/h - N/A Rain Light Rain
2:00 PM 51.8 °F / 11.0 °C 48.2 °F / 9.0 °C 88% 30.09 in / 1019 hPa 3.7 miles / 6.0 kilometers NNW 11.5 mph / 18.5 km/h - N/A Rain Light Rain
2:30 PM 51.8 °F / 11.0 °C 48.2 °F / 9.0 °C 88% 30.09 in / 1019 hPa 3.7 miles / 6.0 kilometers North 11.5 mph / 18.5 km/h - N/A Rain Light Rain
3:30 PM 50.0 °F / 10.0 °C 48.2 °F / 9.0 °C 94% 30.06 in / 1018 hPa 3.7 miles / 6.0 kilometers NNW 10.4 mph / 16.7 km/h - N/A Rain Light Rain
4:00 PM 50 °F / 10 °C 48 °F / 9 °C 89% 30.09 in / 1019 hPa 4 miles / 6 kilometers NNW 4.6 mph / 7.4 km/h - - Rain Light Rain
4:30 PM 50.0 °F / 10.0 °C 48.2 °F / 9.0 °C 94% 30.06 in / 1018 hPa 3.7 miles / 6.0 kilometers Calm Calm - N/A Rain Light Rain
5:00 PM 50.0 °F / 10.0 °C 48.2 °F / 9.0 °C 94% 30.06 in / 1018 hPa 3.1 miles / 5.0 kilometers West 4.6 mph / 7.4 km/h - N/A Rain Light Rain
5:30 PM 50.0 °F / 10.0 °C 50.0 °F / 10.0 °C 100% 30.06 in / 1018 hPa 1.9 miles / 3.0 kilometers WSW 6.9 mph / 11.1 km/h - N/A Rain Rain
6:00 PM 50.0 °F / 10.0 °C 48.2 °F / 9.0 °C 94% 30.06 in / 1018 hPa 1.9 miles / 3.0 kilometers Calm Calm - N/A Rain Light Rain
6:30 PM 50.0 °F / 10.0 °C 48.2 °F / 9.0 °C 94% 30.06 in / 1018 hPa 3.1 miles / 5.0 kilometers NNE 12.7 mph / 20.4 km/h - N/A Rain Light Rain
7:00 PM 50 °F / 10 °C 48 °F / 9 °C 89% 30.08 in / 1019 hPa 3 miles / 5 kilometers NE 13.8 mph / 22.2 km/h - - Rain Light Rain
7:30 PM 50.0 °F / 10.0 °C 46.4 °F / 8.0 °C 87% 30.06 in / 1018 hPa 3.1 miles / 5.0 kilometers NNE 15.0 mph / 24.1 km/h - N/A Rain Light Rain
8:00 PM 51.8 °F / 11.0 °C 48.2 °F / 9.0 °C 88% 30.06 in / 1018 hPa 3.1 miles / 5.0 kilometers North 19.6 mph / 31.5 km/h - N/A Rain Light Rain
8:30 PM 50.0 °F / 10.0 °C 48.2 °F / 9.0 °C 94% 30.06 in / 1018 hPa 3.1 miles / 5.0 kilometers North 11.5 mph / 18.5 km/h - N/A Rain Light Rain
9:00 PM 50.0 °F / 10.0 °C 50.0 °F / 10.0 °C 100% 30.06 in / 1018 hPa 3.1 miles / 5.0 kilometers NNW 12.7 mph / 20.4 km/h - N/A Rain Rain
10:00 PM 50 °F / 10 °C 49 °F / 9 °C 93% 30.06 in / 1018 hPa 3 miles / 5 kilometers NNW 10.4 mph / 16.7 km/h - - Rain Rain
10:00 PM 50.0 °F / 10.0 °C 48.2 °F / 9.0 °C 94% 30.04 in / 1017 hPa 3.1 miles / 5.0 kilometers NNW 10.4 mph / 16.7 km/h - N/A Rain Rain
10:30 PM 51.8 °F / 11.0 °C 48.2 °F / 9.0 °C 88% 30.04 in / 1017 hPa 3.1 miles / 5.0 kilometers North 23.0 mph / 37.0 km/h 34.5 mph / 55.6 km/h N/A Rain Rain
11:30 PM 51.8 °F / 11.0 °C 50.0 °F / 10.0 °C 94% 30.01 in / 1016 hPa 3.7 miles / 6.0 kilometers North 20.7 mph / 33.3 km/h - N/A Rain Light Rain